Wetbulb
73.21 72.29 70.83 70.90 70.30 69.06 71.39 71.08 71.06 72.77 73.21 72.91 73.16 73.15 72.98 73.17 72.40 72.82 72.22 71.79 72.14 71.00
73.09 72.19 70.61 71.08 71.07 71.51 72.17 72.92 72.92 73.48 72.88 72.81 72.76 73.79 73.31 72.40 72.07 72.13 72.40 71.81 72.07 71.21
74.08 73.77 72.48 71.74 71.64 71.38 72.48 72.21 72.51 72.75 72.13 72.32 72.65 73.43 73.07 72.28 72.91 72.09 71.67 72.50 71.52 71.65
73.49 73.45 73.24 73.05 72.51 71.70 72.62 71.41 71.35 71.30 71.62 71.61 71.63 72.94 73.00 72.11 72.53 71.85 70.61 69.49 70.34 71.58
74.00 73.09 73.33 72.74 73.20 72.71 72.32 72.60 71.73 69.75 67.24 69.72 69.63 72.80 71.98 72.38 72.55 70.82 71.12 71.07 71.25 71.48
73.29 72.93 72.59 72.86 72.98 72.52 72.75 71.73 71.89 70.87 68.57 68.06 72.34 72.02 72.54 73.12 72.50 71.11 70.82 71.61 71.18 71.55
72.13 72.22 72.63 72.95 73.39 72.60 73.24 72.42 72.02 72.57 72.63 73.10 73.02 73.29 72.32 73.49 72.93 72.63 72.71 72.74 73.26 72.76
73.74 73.94 73.86 73.82 73.57 73.08 72.92 72.54 72.09 72.48 73.10 74.03 74.27 73.60 72.42 72.58 73.53 72.22 71.44 72.01 72.41 73.00
73.95 73.53 73.55 73.41 73.02 72.32 72.85 73.09 72.90 72.78 72.91 73.66 73.88 71.62 70.35 71.79 72.08 73.01 73.03 72.52 72.91 73.40
74.43 73.81 74.12 73.29 72.76 72.71 71.82 72.01 71.52 71.09 72.08 72.93 73.35 72.03 69.36 68.69 72.32 71.76 71.41 71.85 72.13 73.04
74.03 73.36 74.38 73.98 72.95 73.29 72.85 71.56 70.93 70.19 72.16 72.80 73.60 68.73 67.15 68.84 69.68 71.01 71.87 72.25 71.81 72.19
75.09 74.87 74.91 74.47 74.75 71.91 73.57 72.34 72.46 72.35 72.25 72.27 73.04 63.21 64.57 67.72 70.33 71.81 72.36 72.90 73.02 72.53
74.91 74.20 73.52 74.04 73.42 75.21 74.47 73.98 74.01 72.92 73.06 71.19 73.64 61.73 62.26 65.77 71.24 70.68 71.88 72.03 61.62 61.89
73.95 74.16 74.26 73.25 74.19 74.70 74.52 74.75 74.25 73.33 73.89 74.15 72.61 62.92 59.99 61.06 68.37 68.82 67.97 67.27 61.99 58.74
MSLP
1011.85 1012.59 1012.92 1013.47 1013.74 1014.07 1014.14 1014.18 1014.45 1014.71 1014.99 1015.25 1015.40 1015.63 1015.75 1016.10 1016.15 1015.96 1015.89 1016.00 1015.96 1016.29
1011.60 1012.26 1012.67 1012.93 1013.17 1013.65 1013.85 1014.04 1014.34 1014.41 1014.59 1014.91 1015.13 1015.30 1015.85 1015.78 1015.70 1015.68 1015.57 1015.71 1015.71 1015.94
1011.44 1012.14 1012.23 1012.46 1012.72 1013.10 1013.41 1013.60 1013.94 1014.00 1014.32 1014.64 1014.78 1014.93 1015.23 1015.45 1015.43 1015.48 1015.35 1015.32 1015.45 1015.23
1011.23 1011.77 1011.93 1012.02 1012.33 1012.67 1013.03 1013.24 1013.53 1013.52 1013.87 1014.03 1014.33 1014.57 1014.67 1015.04 1015.14 1015.14 1015.05 1015.02 1015.10 1014.89
1010.93 1011.27 1011.44 1011.68 1011.99 1012.24 1012.53 1012.80 1013.39 1013.43 1013.80 1013.97 1014.27 1014.18 1014.31 1014.73 1014.59 1014.67 1014.85 1014.74 1014.67 1014.46
1010.47 1010.75 1011.04 1011.26 1011.70 1011.72 1012.22 1012.34 1013.00 1013.18 1013.56 1013.74 1013.92 1013.79 1013.98 1014.09 1014.16 1014.28 1014.17 1014.09 1014.14 1014.08
1009.66 1010.05 1010.52 1011.01 1011.19 1011.44 1011.62 1011.92 1012.32 1012.74 1013.21 1013.39 1013.33 1013.34 1013.36 1013.59 1013.64 1013.76 1013.75 1013.76 1013.77 1013.67
1009.27 1009.46 1010.02 1010.45 1010.69 1010.82 1011.13 1011.47 1011.76 1012.04 1012.30 1012.59 1012.68 1012.84 1013.03 1013.13 1013.30 1013.38 1013.50 1013.44 1013.44 1013.33
1008.78 1009.10 1009.46 1009.93 1010.20 1010.54 1010.80 1011.07 1011.40 1011.74 1011.93 1011.99 1012.01 1012.31 1012.57 1012.78 1013.01 1013.01 1013.12 1013.37 1013.22 1013.20
1008.50 1008.70 1009.03 1009.34 1009.74 1010.05 1010.21 1010.59 1010.97 1011.29 1011.68 1011.78 1011.92 1012.17 1012.33 1012.58 1012.71 1012.70 1012.77 1012.77 1012.78 1012.88
1008.17 1008.28 1008.61 1008.99 1009.22 1009.47 1009.86 1010.25 1010.65 1010.93 1011.19 1011.46 1011.72 1011.98 1012.21 1012.40 1012.40 1012.43 1012.46 1012.53 1012.56 1012.71
1007.79 1007.86 1007.84 1008.24 1008.64 1008.98 1009.32 1009.73 1010.02 1010.28 1010.70 1011.00 1011.19 1011.61 1011.91 1012.19 1012.39 1012.50 1012.45 1012.37 1012.32 1012.40
1007.34 1007.14 1007.38 1007.42 1007.74 1007.95 1008.32 1008.81 1009.18 1009.54 1009.75 1010.15 1010.77 1011.28 1011.80 1012.10 1012.27 1012.37 1012.35 1012.02 1012.56 1012.57
1007.03 1006.83 1006.83 1007.03 1006.83 1007.20 1007.77 1008.05 1008.66 1009.08 1009.21 1009.55 1010.06 1010.92 1011.63 1011.78 1012.06 1012.14 1012.19 1012.37 1012.88 1013.15
Wind_Speed
8 6 5 6 4 4 4 6 6 6 7 7 4 4 3 2 3 3 2 4 4 2
7 7 6 6 5 5 4 5 7 7 7 6 5 5 5 4 4 2 2 3 4 3
8 7 6 6 7 6 5 6 5 6 5 2 5 6 6 4 4 4 3 2 3 4
8 8 7 6 6 6 5 6 8 7 6 2 6 6 5 5 6 4 4 3 5 5
9 7 7 7 7 6 7 7 8 6 6 7 8 7 5 7 6 6 5 6 6 6
9 9 8 7 7 7 7 7 9 7 7 8 10 6 6 6 6 6 7 7 7 7
9 9 7 7 7 8 8 7 7 9 10 10 7 6 6 6 6 6 5 6 6 5
8 8 8 8 8 8 7 7 7 7 7 7 7 5 6 6 6 6 6 7 6 6
6 7 7 7 8 7 7 9 7 6 6 6 5 8 11 7 5 6 6 6 6 4
5 7 7 7 7 7 7 7 7 6 5 6 6 10 8 10 8 5 5 5 4 4
7 7 6 7 7 7 6 9 7 7 9 7 6 11 9 9 6 5 5 5 5 5
7 7 8 8 9 7 6 6 8 7 7 7 6 8 8 6 5 5 6 5 6 5
7 8 9 9 7 7 8 9 7 7 7 9 9 12 10 7 4 3 4 5 5 8
6 7 7 7 6 8 9 9 10 10 9 11 8 8 10 9 4 4 2 3 4 3
Wind_Direction
165 192 199 167 195 197 199 190 197 198 185 199 221 247 251 232 245 244 243 237 252 250
169 181 184 189 188 204 199 170 200 180 180 188 213 223 229 230 252 226 256 240 255 237
184 182 184 186 205 201 222 204 164 165 176 198 245 229 206 222 256 226 241 228 306 249
176 189 189 186 201 210 213 156 141 149 148 184 285 243 201 212 230 234 239 270 268 254
184 182 183 188 198 191 199 167 159 170 169 202 240 230 203 224 226 215 212 246 265 260
182 180 187 195 202 196 188 188 160 182 184 208 232 211 224 229 220 227 225 236 240 247
184 186 183 201 189 194 182 191 188 183 196 208 205 203 224 230 231 236 238 253 259 252
178 182 188 191 195 189 191 193 198 204 201 197 193 212 224 231 229 226 248 264 268 266
195 188 191 182 191 194 184 193 196 214 204 198 217 223 233 225 238 220 227 246 265 284
189 199 189 185 186 198 194 185 183 192 251 224 212 229 231 229 228 210 225 233 240 271
202 212 202 189 201 194 177 191 194 202 214 208 215 226 217 217 218 225 233 235 245 253
212 212 205 198 195 196 174 184 192 193 195 203 209 186 196 185 206 227 248 254 253 251
223 221 228 213 206 188 185 198 190 192 189 199 209 183 185 185 189 219 246 261 82 54
311 244 232 236 211 201 196 184 193 198 196 206 189 163 171 193 183 194 256 193 135 133